Regional Weather Roundup
Issued by NWS

Home | Current Version | Previous Version | Text Only | Print | Product List | Glossary Off
Versions: 1 2 3 4 5 6 7 8 9 10 11 12 13 14 15 16 17 18 19 20 21 22 23 24 25 26 27 28 29 30 31 32 33 34 35 36 37 38 39 40 41 42 43 44 45 46 47 48 49 50

000
ASUS45 KABQ 050710
RWRNM
NEW MEXICO REGIONAL WEATHER ROUNDUP
NATIONAL WEATHER SERVICE ALBUQUERQUE NM
100 AM MDT SAT SEP 05 2015

NOTE: "FAIR" MEANS FEW OR NO CLOUDS BELOW 12,000 FEET AGL WITH NO
       SIGNIFICANT WEATHER OR OBSTRUCTIONS TO VISION.

      THIS PRODUCT IS RELEASED AS TWO VERSIONS.  ONE VERSION NEAR
      THE TOP OF THE HOUR CONTAINING PRELIMINARY DATA FROM ALBUQUERQUE
      AND OTHER STATIONS.  A FINAL VERSION WITH ADDITIONAL DATA IS
      ISSUED ABOUT 10 MINUTES AFTER THE HOUR.

NMZ501-503-504-510>518-050800-
NORTHWEST PLATEAU/NORTHCENTRAL MOUNTAINS

CITY           SKY/WX    TMP DP  RH WIND       PRES   REMARKS
FARMINGTON     PTCLDY    61  57  87 NE6       30.11S
LOS ALAMOS     CLOUDY    56  54  94 S5        30.26R
SANTA FE       MOCLDY    59  56  89 NE5       30.20S
TAOS           CLOUDY    57  46  67 CALM      30.26F
ANGEL FIRE     CLOUDY    53  49  87 W10       30.29S

$$
NMZ402-403-502-505>509-050800-
WESTCENTRAL MOUNTAINS/SOUTHWEST MOUNTAINS

CITY           SKY/WX    TMP DP  RH WIND       PRES   REMARKS
GALLUP         CLOUDY    60  53  77 SW3       30.18S
GRANTS         CLOUDY    58  56  91 SE6       30.21F
SILVER CITY      N/A     59  57  94 W3        30.15F

$$
NMZ407-409-411-412-050800-
SOUTHERN DESERTS

CITY           SKY/WX    TMP DP  RH WIND       PRES   REMARKS
LORDSBURG      FAIR      63  61  94 SW8       30.06F
DEMING         MOCLDY    65  61  87 SW5       30.08F
LAS CRUCES     CLOUDY    72  56  57 CALM      30.09F
HOLLOMAN AFB   CLOUDY    75  56  51 N8        30.03S
ALAMOGORDO     MOCLDY    75  55  50 N10       30.05S
T OR C         MOCLDY    67  58  72 NW6       30.10F

$$
NMZ519>523-050800-
CENTRAL VALLEYS/CENTRAL HIGHLANDS

CITY           SKY/WX    TMP DP  RH WIND       PRES   REMARKS
ALBUQUERQUE    CLOUDY    64  58  80 SE6       30.16S
DOUBLE EAGLE   CLOUDY    60  59  97 NE3       30.19S
MORIARTY ARPT  CLOUDY    59  55  88 CALM      30.22S
CLINES CORNERS CLOUDY    59  50  72 W12       30.24R
BELEN          DRIZZLE   64  60  88 CALM      30.15S
SOCORRO        CLOUDY    65  59  81 NW3       30.11F

$$
NMZ524>526-539-540-050800-
SOUTHCENTRAL MOUNTAINS

CITY           SKY/WX    TMP DP  RH WIND       PRES   REMARKS
RUIDOSO        CLOUDY    61  55  82 CALM      30.27S

$$
NMZ527>531-050800-
NORTHEAST HIGHLANDS/NORTHEAST PLAINS

CITY           SKY/WX    TMP DP  RH WIND       PRES   REMARKS
LAS VEGAS      CLOUDY    63  49  60 SW10      30.22S
RATON          CLOUDY    66  50  56 S14       30.13F
CLAYTON        MOCLDY    67  53  61 SW8       30.07S

$$
NMZ532>537-050800-
EASTCENTRAL PLAINS

CITY           SKY/WX    TMP DP  RH WIND       PRES   REMARKS
TUCUMCARI      MOCLDY    68  55  63 SW3       30.02F
CANNON AFB     PTCLDY    69  53  55 SW8       30.06F
CLOVIS AIRPORT PTCLDY    68  52  56 SW6       30.08S

$$
NMZ028-029-538-050800-
SOUTHEAST PLAINS

CITY           SKY/WX    TMP DP  RH WIND       PRES   REMARKS
ROSWELL        CLEAR     74  55  51 N6        30.02R
ARTESIA        CLEAR     72  50  46 S6        30.00S
CARLSBAD       CLEAR     78  51  38 S8        29.97S
HOBBS            N/A     68  54  60 SE6       30.02F


$$


USA.gov is the U.S. government's official web portal to all federal, state and local government web resources and services.